[[{"header":{"parameterUnit":"m.s-1","parameterCategory":1,"la1":30.2991,"la2":30.254,"lo1":-89.0895,"lo2":-89.0444,"dy":0.0017,"dx":0.0017,"nx":28,"ny":28,"refTime":"2023-09-03T21:00:00:Z","depth":0,"parameterNumber":2,"parameterNumberName":"U-component_of_WINDS"},"data":[0,0,0,0,0,0,0,0,0,0,0,0,0,0,0,0,0,0,0,0,0,0,0,0,0,0,0,0,0,0,0,0,0,0,0,0,0,0,0,0,0,0,0,0,0,0,0,0,0,0,0,0,0,0,0,0,0,0,-5.1989,-5.199,0,-5.207,-5.2071,-5.2072,-5.2013,-5.2011,-5.2008,-5.2006,-5.2083,-5.2087,-5.2092,0,0,0,0,0,0,0,0,0,0,0,0,0,-5.1777,-5.1781,-5.1989,-5.199,-5.1991,-5.207,-5.2071,-5.2072,-5.2014,-5.2011,-5.2007,-5.2004,-5.2082,-5.2087,-5.2092,0,0,0,0,0,0,0,0,0,0,0,0,0,-5.1865,-5.1782,-5.1989,-5.1971,-5.1971,-5.207,-5.2071,-5.2073,-5.2014,-5.201,-5.2007,-5.2003,-5.208,-5.2086,-5.2093,-5.2212,0,0,-5.2114,-5.2116,0,0,0,0,0,0,0,0,-5.186,-5.1872,-5.1973,-5.1973,-5.1972,-5.2028,-5.2025,-5.2119,-5.2015,-5.1998,-5.2006,-5.2001,-5.2067,-5.2075,-5.2098,-5.2216,-5.2219,-5.2114,-5.2118,-5.2121,-5.2123,0,0,0,0,0,0,0,-5.1854,-5.1868,-5.2021,-5.1974,-5.1974,-5.1958,-5.1966,-5.2042,-5.2053,-5.1999,-5.1995,-5.2005,-5.2066,-5.2092,-5.21,-5.222,-5.2114,-5.212,-5.2124,-5.2127,-5.2436,-5.244,0,0,0,0,0,0,-5.185,-5.1864,-5.2018,-5.2023,-5.1905,-5.1965,-5.1974,-5.2014,-5.2052,-5.2054,-5.2009,-5.2002,-5.2083,-5.2092,-5.2102,-5.2241,-5.2121,-5.2127,-5.2131,-5.2432,-5.2437,-5.2442,0,0,0,0,0,0,-5.1846,-5.1864,-5.2015,-5.1943,-5.1961,-5.1972,-5.2018,-5.2017,-5.2043,-5.206,-5.2061,-5.2033,-5.208,-5.2093,-5.2185,-5.2243,-5.213,-5.2136,-5.2427,-5.2434,-5.244,-5.2522,0,0,0,0,0,0,-5.184,-5.1863,-5.191,-5.1944,-5.1965,-5.2098,-5.2021,-5.2022,-5.2055,-5.2048,-5.2083,-5.2085,-5.2078,-5.2175,-5.2192,-5.225,-5.2142,-5.2422,-5.243,-5.2438,-5.2514,-5.253,-5.2545,0,0,0,0,0,-5.1833,-5.1929,-5.1912,-5.1931,-5.2023,-5.2101,-5.2113,-5.2104,-5.206,-5.2106,-5.2117,-5.2084,-5.2236,-5.2185,-5.2203,-5.2265,-5.2418,-5.2428,-5.2437,-5.2507,-5.2527,-5.2544,0,0,0,0,0,0,-5.1898,-5.1933,-5.1915,-5.2026,-5.2062,-5.2091,-5.2148,-5.2126,-5.2173,-5.2164,-5.215,-5.2158,-5.2254,-5.227,-5.2213,-5.2381,-5.2319,-5.2333,-5.2367,-5.2386,-5.2401,-5.2393,-5.2147,0,0,0,0,0,-5.1927,-5.1989,-5.2015,-5.211,-5.213,-5.2137,-5.217,-5.2161,-5.2196,-5.221,-5.2228,-5.2262,-5.2317,-5.2353,-5.2405,-5.2518,-5.2523,-5.2569,-5.2584,-5.2597,-5.2607,-5.2665,-5.2685,-5.2473,-5.2473,-5.2473,0,0,-5.1984,-5.201,-5.205,-5.2124,-5.2151,-5.2213,-5.2149,-5.2219,-5.2264,-5.222,-5.2307,-5.2322,-5.2359,-5.2462,-5.2508,-5.2477,-5.2668,-5.2609,-5.2619,-5.2622,-5.2677,-5.2697,-5.2715,-5.2479,-5.2478,-5.2477,0,0,-5.2119,-5.2148,-5.2228,-5.2257,-5.2299,-5.2303,-5.2323,-5.2357,-5.2365,-5.2453,-5.2421,-5.2475,-5.2571,-5.2598,-5.2624,-5.2772,-5.2742,-5.2789,-5.2866,-5.2923,-5.294,-5.2954,-5.3003,-5.3021,-5.28,-5.2801,-5.2801,0,-5.2184,-5.2279,-5.2272,-5.2344,-5.2376,-5.2343,-5.2423,-5.2451,-5.2506,-5.2528,-5.2495,-5.2614,-5.2636,-5.2743,-5.2779,-5.2803,-5.2823,-5.2782,-5.2938,-5.2953,-5.2966,-5.3013,-5.3032,-5.2806,-5.2805,-5.2805,-5.2804,0,-5.2355,-5.2421,-5.2482,-5.2538,-5.2577,-5.2653,-5.2656,-5.2697,-5.2685,-5.2693,-5.2782,-5.2809,-5.2864,-5.289,-5.2879,-5.2995,-5.2975,-5.2941,-5.2877,-5.2992,-5.3035,-5.3053,-5.2813,-5.2811,-5.281,-5.2808,0,0,-5.2529,-5.2583,-5.2605,-5.2629,-5.2674,-5.2724,-5.2798,-5.2854,-5.2888,-5.2929,-5.2988,-5.3071,-5.3039,-5.3069,-5.3061,-5.3112,-5.3223,-5.307,-5.3071,-5.3094,-5.3349,-5.3371,-5.3392,-5.3206,-5.3209,-5.3212,-5.3344,0,-5.2664,-5.2794,-5.2791,-5.2911,-5.297,-5.294,-5.3004,-5.3037,-5.3047,-5.3097,-5.3108,-5.3165,-5.3121,-5.3138,-5.3188,-5.3199,-5.3273,-5.319,-5.3257,-5.3259,-5.3243,-5.3415,-5.3439,-5.3562,-5.3361,-5.3364,-5.3367,0,-5.2837,-5.2884,-5.3011,-5.3046,-5.307,-5.3128,-5.3179,-5.3229,-5.3266,-5.3269,-5.3304,-5.3288,-5.336,-5.33,-5.3398,-5.3341,-5.3369,-5.3379,-5.3384,-5.3385,-5.3316,-5.3417,-5.3602,-5.3618,-5.3394,-5.3392,-5.339,0,-5.2946,-5.3042,-5.313,-5.3152,-5.3196,-5.3237,-5.3257,-5.329,-5.3324,-5.3369,-5.339,-5.3443,-5.347,-5.351,-5.3507,-5.3464,-5.3606,-5.3546,-5.3608,-5.3608,-5.3634,-5.3632,-5.3822,-5.3661,-5.3661,-5.3661,-5.366,0,-5.3093,-5.317,-5.3179,-5.3232,-5.3317,-5.3314,-5.3398,-5.3413,-5.3444,-5.3497,-5.3476,-5.3527,-5.3523,-5.3574,-5.3573,-5.3653,-5.3667,-5.3669,-5.3667,-5.3668,-5.3667,-5.3682,-5.3672,-5.3665,-5.3664,-5.3663,-5.3663,0,-5.3227,-5.3237,-5.333,-5.3365,-5.3376,-5.3437,-5.3465,-5.3515,-5.3524,-5.3593,-5.3609,-5.3622,-5.3681,-5.3684,-5.3752,-5.3751,-5.3847,-5.3838,-5.3834,-5.3831,-5.3891,-5.3883,-5.4093,-5.4119,-5.3946,-5.3948,-5.3949,0,-5.3318,-5.3377,-5.3419,-5.3455,-5.3478,-5.3536,-5.357,-5.357,-5.3606,-5.3653,-5.3696,-5.3754,-5.3799,-5.3895,-5.3909,-5.3961,-5.3949,-5.402,-5.3956,-5.3956,-5.3945,-5.394,-5.3944,-5.403,-5.4032,-5.4033,-5.4035,0,-5.3477,-5.3479,-5.3531,-5.3585,-5.3628,-5.367,-5.3709,-5.3739,-5.3743,-5.3785,-5.3846,-5.3882,-5.3952,-5.4008,-5.4059,-5.4077,-5.4055,-5.4056,-5.4071,-5.4071,-5.4064,-5.4064,-5.3863,-5.4049,-5.4048,-5.4047,-5.4046,-5.4045,-5.3589,-5.3639,-5.3676,-5.3735,-5.3765,-5.3802,-5.385,-5.3866,-5.3918,-5.3975,-5.3972,-5.4039,-5.4073,-5.4139,-5.4162,-5.4213,-5.4189,-5.4213,-5.4218,-5.4223,-5.4227,-5.4061,-5.4223,-5.4222,-5.4222,-5.4222,-5.4221,0,-5.3742,-5.3765,-5.382,-5.3876,-5.3921,-5.3902,-5.3944,-5.3983,-5.4042,-5.4078,-5.4124,-5.4193,-5.4248,-5.4268,-5.4321,-5.4357,-5.4349,-5.4371,-5.4365,-5.4369,-5.4248,-5.4227,-5.4377,-5.4377,-5.4377,-5.4377,-5.4377,-5.4377,-5.3827,-5.3909,-5.3916,-5.4013,-5.4036,-5.4102,-5.4128,-5.4161,-5.4189,-5.4268,-5.4314,-5.4328,-5.4357,-5.4412,-5.4461,-5.4465,-5.4483,-5.4509,-5.4509,-5.4394,-5.4378,-5.4363,-5.4342,-5.4514,-5.4514,-5.4625,-5.4626,-5.4626]},{"header":{"parameterUnit":"m.s-1","parameterCategory":1,"la1":30.2991,"la2":30.254,"lo1":-89.0895,"lo2":-89.0444,"dy":0.0017,"dx":0.0017,"nx":28,"ny":28,"refTime":"2023-09-03T21:00:00:Z","depth":0,"parameterNumber":3,"parameterNumberName":"V-component_of_WINDS"},"data":[0,0,0,0,0,0,0,0,0,0,0,0,0,0,0,0,0,0,0,0,0,0,0,0,0,0,0,0,0,0,0,0,0,0,0,0,0,0,0,0,0,0,0,0,0,0,0,0,0,0,0,0,0,0,0,0,0,0,1.2987,1.2989,0,1.3201,1.3204,1.3206,1.3276,1.3275,1.3274,1.3273,1.3494,1.35,1.3507,0,0,0,0,0,0,0,0,0,0,0,0,0,1.2642,1.2648,1.2987,1.2989,1.2992,1.3201,1.3204,1.3207,1.3276,1.3275,1.3274,1.3273,1.3491,1.3499,1.3508,0,0,0,0,0,0,0,0,0,0,0,0,0,1.2817,1.265,1.2986,1.3052,1.306,1.32,1.3204,1.3207,1.3276,1.3275,1.3274,1.3272,1.3489,1.3499,1.3509,1.3599,0,0,1.354,1.3544,0,0,0,0,0,0,0,0,1.2807,1.283,1.304,1.3048,1.3057,1.321,1.3163,1.3339,1.3277,1.3194,1.3273,1.3272,1.3401,1.3418,1.3461,1.361,1.3619,1.354,1.3547,1.3551,1.3554,0,0,0,0,0,0,0,1.2795,1.2821,1.3072,1.3043,1.3053,1.3072,1.3095,1.3197,1.3303,1.3201,1.3207,1.3231,1.3405,1.3451,1.3467,1.3622,1.354,1.3549,1.3555,1.3559,1.3861,1.3863,0,0,0,0,0,0,1.2772,1.2811,1.3065,1.3078,1.2926,1.3079,1.3106,1.3163,1.3302,1.3322,1.3232,1.3234,1.3435,1.3455,1.3475,1.3593,1.3551,1.356,1.3566,1.3859,1.3862,1.3864,0,0,0,0,0,0,1.2764,1.2794,1.3056,1.2946,1.2981,1.3087,1.315,1.3167,1.3214,1.3325,1.3345,1.326,1.3434,1.3461,1.3569,1.3602,1.3565,1.3574,1.3857,1.386,1.3863,1.3828,0,0,0,0,0,0,1.2754,1.279,1.2824,1.2946,1.2986,1.3145,1.3152,1.3173,1.3231,1.3235,1.3356,1.3375,1.3435,1.3553,1.3579,1.3615,1.3582,1.3855,1.3858,1.3862,1.3827,1.383,1.3832,0,0,0,0,0,1.2741,1.2806,1.2826,1.2856,1.3031,1.3147,1.317,1.3238,1.3233,1.327,1.3342,1.3371,1.3594,1.3564,1.3593,1.3633,1.3853,1.3857,1.3862,1.3826,1.3829,1.3832,0,0,0,0,0,0,1.2684,1.2823,1.2847,1.2952,1.3037,1.3158,1.3206,1.3238,1.3327,1.3327,1.3408,1.3435,1.3537,1.3596,1.356,1.3731,1.3725,1.3736,1.3688,1.3692,1.3694,1.3678,1.359,0,0,0,0,0,1.2684,1.2765,1.2882,1.2964,1.3006,1.3098,1.3151,1.3196,1.3288,1.3324,1.3404,1.3493,1.3584,1.3641,1.373,1.3836,1.3865,1.3879,1.3881,1.3882,1.389,1.3955,1.3963,1.3878,1.3878,1.3878,0,0,1.2684,1.277,1.2816,1.2955,1.3026,1.311,1.3128,1.3215,1.3279,1.3338,1.3445,1.3508,1.3612,1.372,1.3772,1.3772,1.3921,1.3888,1.3888,1.3896,1.396,1.3968,1.3975,1.3881,1.3881,1.388,0,0,1.2728,1.28,1.2877,1.2949,1.3058,1.312,1.3138,1.3256,1.33,1.3409,1.3456,1.3534,1.3687,1.3761,1.3818,1.3894,1.3925,1.3921,1.3934,1.3996,1.4002,1.4009,1.4038,1.4047,1.3929,1.3929,1.3929,0,1.2714,1.2841,1.2913,1.2999,1.306,1.3119,1.32,1.3266,1.3398,1.3439,1.3438,1.3635,1.3709,1.3837,1.3856,1.39,1.3926,1.3907,1.3995,1.4003,1.401,1.4039,1.4049,1.3928,1.3928,1.3928,1.3928,0,1.2821,1.2909,1.2959,1.3086,1.3153,1.3235,1.3322,1.3382,1.3422,1.3485,1.3598,1.369,1.38,1.3834,1.3874,1.3969,1.3967,1.3979,1.3976,1.4015,1.4044,1.4055,1.3926,1.3927,1.3927,1.3927,0,0,1.2831,1.3,1.3017,1.3077,1.3203,1.3273,1.336,1.3469,1.352,1.361,1.3686,1.3817,1.3831,1.3896,1.3945,1.3999,1.4057,1.4006,1.401,1.4014,1.4172,1.4161,1.4173,1.4079,1.4082,1.4084,1.4163,0,1.2892,1.3049,1.3119,1.3245,1.3329,1.3388,1.3465,1.3551,1.3613,1.3695,1.3764,1.3856,1.3867,1.3907,1.3963,1.4038,1.409,1.4033,1.4153,1.4156,1.4125,1.4187,1.4176,1.4247,1.4175,1.4177,1.4178,0,1.2983,1.3075,1.3209,1.3329,1.3367,1.3434,1.3541,1.3618,1.3719,1.3761,1.3836,1.3883,1.398,1.397,1.4106,1.4066,1.4119,1.4164,1.4169,1.4182,1.4169,1.4204,1.4271,1.4281,1.4196,1.4195,1.4193,0,1.2979,1.3136,1.3239,1.3288,1.3429,1.3476,1.3537,1.3636,1.3698,1.3793,1.3835,1.3938,1.3996,1.4076,1.4152,1.4138,1.4281,1.4277,1.432,1.4318,1.4347,1.4344,1.4424,1.438,1.438,1.438,1.438,0,1.304,1.312,1.3239,1.3302,1.3395,1.3476,1.3567,1.3632,1.3721,1.38,1.3857,1.393,1.4025,1.4111,1.4171,1.4275,1.43,1.4338,1.4353,1.4333,1.4329,1.4369,1.4367,1.4383,1.4382,1.4382,1.4381,0,1.305,1.3133,1.3249,1.3374,1.3408,1.3471,1.358,1.3644,1.3711,1.3809,1.3837,1.3941,1.4045,1.4129,1.4265,1.4306,1.4416,1.4432,1.4381,1.4389,1.4428,1.4424,1.4537,1.4557,1.4499,1.4499,1.45,0,1.3083,1.3147,1.3281,1.3337,1.3398,1.3488,1.3553,1.3636,1.3701,1.3823,1.3874,1.3982,1.4073,1.4237,1.4325,1.443,1.4451,1.4484,1.4467,1.4446,1.4453,1.4449,1.4457,1.4485,1.4485,1.4485,1.4485,0,1.3134,1.3173,1.3263,1.3369,1.3445,1.3532,1.3621,1.3664,1.3765,1.3835,1.3943,1.4013,1.4153,1.4261,1.4376,1.4441,1.4481,1.449,1.4506,1.4486,1.4455,1.4474,1.4387,1.4487,1.4487,1.4487,1.4487,1.4487,1.3159,1.3219,1.3324,1.3423,1.35,1.3582,1.365,1.3726,1.3817,1.3937,1.3981,1.4092,1.4196,1.4355,1.4421,1.451,1.4514,1.4536,1.4542,1.4546,1.4545,1.4441,1.4532,1.4532,1.4532,1.4532,1.4532,0,1.3214,1.3285,1.3376,1.3499,1.3578,1.361,1.3711,1.3776,1.3872,1.3965,1.4055,1.418,1.4286,1.4384,1.4495,1.4548,1.457,1.4575,1.4572,1.4587,1.4534,1.451,1.4556,1.4556,1.4556,1.4556,1.4556,1.4556,1.3251,1.3357,1.3409,1.3554,1.3625,1.3734,1.3789,1.3867,1.3942,1.4079,1.4168,1.4232,1.4328,1.4448,1.4547,1.4574,1.4613,1.4613,1.4645,1.4594,1.459,1.4587,1.4564,1.4621,1.4621,1.469,1.4691,1.4691]}]]